• In Hungary
  • List of Countries
  • For 7 days
  • Water Temperature
  • Satellite Maps
  • Weather Map
  • News
  • Weather Widgets
  • user-avatar
    Login

    Hourly Weather Tibissa

    Today, 20 November, Monday

    Time Temperature Precipitation Wind Pressure Humidity
    00:00 +7°C° 0 mm 2 mps 687 mmHg 78%
    01:00 +7°C° 0 mm 2 mps 687 mmHg 76%
    02:00 +7°C° 0 mm 2 mps 687 mmHg 75%
    03:00 +7°C° 0 mm 2 mps 687 mmHg 73%
    04:00 +6°C° 0 mm 2 mps 687 mmHg 72%
    05:00 +6°C° 0 mm 2 mps 687 mmHg 69%
    06:00 +6°C° 0 mm 2 mps 687 mmHg 66%
    07:00 +6°C° 0 mm 2 mps 688 mmHg 64%
    08:00 +8°C° 0 mm 2 mps 688 mmHg 56%
    09:00 +10°C° 0 mm 3 mps 689 mmHg 48%
    10:00 +11°C° 0 mm 3 mps 689 mmHg 41%
    11:00 +12°C° 0 mm 3 mps 689 mmHg 39%
    12:00 +13°C° 0 mm 3 mps 690 mmHg 38%
    13:00 +14°C° 0 mm 4 mps 690 mmHg 37%
    14:00 +14°C° 0 mm 4 mps 690 mmHg 38%
    15:00 +14°C° 0 mm 3 mps 689 mmHg 39%
    16:00 +14°C° 0 mm 3 mps 689 mmHg 40%
    17:00 +14°C° 0 mm 2 mps 689 mmHg 47%
    18:00 +13°C° 0 mm 2 mps 689 mmHg 54%
    19:00 +11°C° 0 mm 1 mps 689 mmHg 61%
    20:00 +11°C° 0 mm 1 mps 689 mmHg 64%
    21:00 +10°C° 0 mm 1 mps 689 mmHg 68%
    22:00 +9°C° 0 mm 0 mps 689 mmHg 71%
    23:00 +10°C° 0 mm 1 mps 689 mmHg 71%

    Tomorrow, 21 November, Tuesday

    Time Temperature Precipitation Wind Pressure Humidity
    00:00 +9°C° 0 mm 1 mps 689 mmHg 70%
    01:00 +9°C° 0 mm 1 mps 689 mmHg 70%
    02:00 +9°C° 0 mm 1 mps 689 mmHg 68%
    03:00 +9°C° 0 mm 1 mps 688 mmHg 66%
    04:00 +8°C° 0 mm 1 mps 688 mmHg 65%
    05:00 +8°C° 0 mm 1 mps 688 mmHg 62%
    06:00 +8°C° 0 mm 1 mps 688 mmHg 59%
    07:00 +8°C° 0 mm 1 mps 688 mmHg 56%
    08:00 +10°C° 0 mm 1 mps 689 mmHg 48%
    09:00 +12°C° 0 mm 1 mps 689 mmHg 39%
    10:00 +14°C° 0 mm 2 mps 690 mmHg 31%
    11:00 +15°C° 0 mm 2 mps 690 mmHg 27%
    12:00 +16°C° 0 mm 2 mps 690 mmHg 24%
    13:00 +17°C° 0 mm 2 mps 689 mmHg 20%
    14:00 +17°C° 0 mm 2 mps 689 mmHg 20%
    15:00 +17°C° 0 mm 2 mps 689 mmHg 20%
    16:00 +17°C° 0 mm 2 mps 689 mmHg 20%
    17:00 +16°C° 0 mm 1 mps 688 mmHg 25%
    18:00 +14°C° 0 mm 1 mps 688 mmHg 29%
    19:00 +12°C° 0 mm 1 mps 688 mmHg 34%
    20:00 +12°C° 0 mm 1 mps 688 mmHg 35%
    21:00 +11°C° 0 mm 1 mps 688 mmHg 36%
    22:00 +10°C° 0 mm 1 mps 688 mmHg 38%
    23:00 +10°C° 0 mm 1 mps 688 mmHg 38%

    Day after tomorrow, 22 November, Wednesday

    Time Temperature Precipitation Wind Pressure Humidity
    00:00 +10°C° 0 mm 1 mps 687 mmHg 39%
    01:00 +9°C° 0 mm 1 mps 687 mmHg 39%
    02:00 +9°C° 0 mm 1 mps 687 mmHg 38%
    03:00 +9°C° 0 mm 1 mps 687 mmHg 38%
    04:00 +9°C° 0 mm 1 mps 686 mmHg 37%
    05:00 +9°C° 0 mm 1 mps 686 mmHg 38%
    06:00 +7°C° 0 mm 2 mps 686 mmHg 38%
    07:00 +7°C° 0 mm 2 mps 686 mmHg 39%
    08:00 +9°C° 0 mm 2 mps 687 mmHg 33%
    09:00 +12°C° 0 mm 1 mps 688 mmHg 28%
    10:00 +15°C° 0 mm 1 mps 688 mmHg 23%
    11:00 +15°C° 0 mm 2 mps 688 mmHg 22%
    12:00 +16°C° 0 mm 2 mps 688 mmHg 21%
    13:00 +17°C° 0 mm 3 mps 688 mmHg 21%
    14:00 +17°C° 0 mm 2 mps 688 mmHg 22%
    15:00 +17°C° 0 mm 2 mps 688 mmHg 23%
    16:00 +17°C° 0 mm 2 mps 687 mmHg 25%
    17:00 +16°C° 0 mm 2 mps 687 mmHg 29%
    18:00 +14°C° 0 mm 2 mps 687 mmHg 33%
    19:00 +13°C° 0 mm 2 mps 687 mmHg 37%
    20:00 +12°C° 0 mm 2 mps 687 mmHg 40%
    21:00 +11°C° 0 mm 1 mps 687 mmHg 42%
    22:00 +11°C° 0 mm 1 mps 687 mmHg 45%
    23:00 +10°C° 0 mm 1 mps 687 mmHg 46%

    23 November, Thursday

    Time Temperature Precipitation Wind Pressure Humidity
    00:00 +10°C° 0 mm 1 mps 687 mmHg 48%
    01:00 +10°C° 0 mm 1 mps 687 mmHg 49%
    02:00 +9°C° 0 mm 1 mps 687 mmHg 50%
    03:00 +9°C° 0 mm 1 mps 686 mmHg 51%
    04:00 +8°C° 0 mm 1 mps 686 mmHg 52%
    05:00 +8°C° 0 mm 1 mps 686 mmHg 53%
    06:00 +8°C° 0 mm 1 mps 686 mmHg 53%
    07:00 +8°C° 0 mm 1 mps 687 mmHg 54%
    08:00 +10°C° 0 mm 1 mps 687 mmHg 48%
    09:00 +12°C° 0 mm 1 mps 688 mmHg 42%
    10:00 +14°C° 0 mm 1 mps 689 mmHg 36%
    11:00 +15°C° 0 mm 1 mps 689 mmHg 34%
    12:00 +16°C° 0 mm 1 mps 689 mmHg 32%
    13:00 +16°C° 0 mm 1 mps 689 mmHg 30%
    14:00 +18°C° 0 mm 1 mps 689 mmHg 30%
    15:00 +18°C° 0 mm 1 mps 689 mmHg 31%
    16:00 +18°C° 0 mm 1 mps 689 mmHg 31%
    17:00 +15°C° 0 mm 1 mps 689 mmHg 36%
    18:00 +14°C° 0 mm 1 mps 689 mmHg 42%
    19:00 +13°C° 0 mm 2 mps 689 mmHg 48%
    20:00 +12°C° 0 mm 1 mps 689 mmHg 53%
    21:00 +12°C° 0 mm 1 mps 689 mmHg 58%
    22:00 +11°C° 0 mm 1 mps 689 mmHg 63%
    23:00 +11°C° 0 mm 1 mps 689 mmHg 67%

    24 November, Friday

    Time Temperature Precipitation Wind Pressure Humidity
    00:00 +10°C° 0 mm 1 mps 689 mmHg 71%
    01:00 +10°C° 0 mm 1 mps 689 mmHg 75%
    02:00 +10°C° 0 mm 1 mps 689 mmHg 77%
    03:00 +9°C° 0 mm 1 mps 688 mmHg 79%
    04:00 +8°C° 0 mm 0 mps 688 mmHg 81%
    05:00 +9°C° 0 mm 1 mps 688 mmHg 82%
    06:00 +9°C° 0 mm 1 mps 688 mmHg 82%
    07:00 +8°C° 0 mm 1 mps 688 mmHg 83%
    08:00 +10°C° 0 mm 1 mps 689 mmHg 76%
    09:00 +12°C° 0 mm 1 mps 690 mmHg 69%
    10:00 +13°C° 0 mm 1 mps 690 mmHg 61%
    11:00 +14°C° 0 mm 1 mps 690 mmHg 56%
    12:00 +15°C° 0 mm 1 mps 690 mmHg 50%
    13:00 +16°C° 0 mm 1 mps 690 mmHg 45%
    14:00 +16°C° 0 mm 1 mps 690 mmHg 44%
    15:00 +16°C° 0 mm 1 mps 689 mmHg 44%
    16:00 +18°C° 0 mm 1 mps 689 mmHg 44%
    17:00 +15°C° 0 mm 1 mps 689 mmHg 50%
    18:00 +14°C° 0 mm 2 mps 689 mmHg 56%
    19:00 +13°C° 0 mm 2 mps 689 mmHg 63%
    20:00 +13°C° 0 mm 2 mps 689 mmHg 67%
    21:00 +12°C° 0 mm 2 mps 689 mmHg 72%
    22:00 +12°C° 0 mm 2 mps 690 mmHg 76%
    23:00 +10°C° 0 mm 2 mps 689 mmHg 79%

    25 November, Saturday

    Time Temperature Precipitation Wind Pressure Humidity
    00:00 +11°C° 0 mm 1 mps 689 mmHg 81%
    01:00 +10°C° 0 mm 1 mps 689 mmHg 84%
    02:00 +10°C° 0 mm 1 mps 689 mmHg 85%
    03:00 +10°C° 0 mm 1 mps 689 mmHg 86%
    04:00 +10°C° 0 mm 1 mps 688 mmHg 87%
    05:00 +9°C° 0 mm 1 mps 688 mmHg 88%
    06:00 +9°C° 0 mm 1 mps 688 mmHg 88%
    07:00 +8°C° 0 mm 2 mps 688 mmHg 88%
    08:00 +10°C° 0 mm 2 mps 689 mmHg 81%
    09:00 +12°C° 0 mm 2 mps 689 mmHg 74%
    10:00 +13°C° 0 mm 3 mps 690 mmHg 67%
    11:00 +14°C° 0 mm 3 mps 690 mmHg 61%
    12:00 +15°C° 0 mm 4 mps 690 mmHg 55%
    13:00 +17°C° 0 mm 4 mps 690 mmHg 49%
    14:00 +17°C° 0 mm 4 mps 689 mmHg 49%
    15:00 +17°C° 0 mm 4 mps 689 mmHg 49%
    16:00 +17°C° 0 mm 4 mps 689 mmHg 49%
    17:00 +16°C° 0 mm 3 mps 689 mmHg 55%
    18:00 +13°C° 0 mm 3 mps 689 mmHg 62%
    19:00 +12°C° 0 mm 3 mps 689 mmHg 69%
    20:00 +12°C° 0 mm 3 mps 689 mmHg 73%
    21:00 +11°C° 0 mm 3 mps 689 mmHg 76%
    22:00 +10°C° 0 mm 3 mps 689 mmHg 80%
    23:00 +10°C° 0 mm 3 mps 689 mmHg 82%
    Show more